Location: Il Ritiro
(43.4167°N, 13.1333°E)
Time: 07:07:32
(UTC+00:00)

GP-B - Pass Details

Date: 05 July 2020
Orbit: 631 x 635 km, 89.8° (Epoch: 06 August)

Event Time Altitude Azimuth Distance (km) Brightness Sun altitude
Rises 22:04:38 0° 8° (N) 2,938 7.6 -22.1°
Reaches altitude 10° 22:06:59 10° 16° (NNE) 2,025 6.5 -22.2°
Maximum altitude 22:11:12 41° 87° (E) 920 3.8 -22.4°
Enters shadow 22:11:24 41° 95° (E) 924 3.7 -22.5°
